Time,TemperatureF,DewpointF,PressureIn,WindDirection,WindDirectionDegrees,WindSpeedMPH,WindSpeedGustMPH,Humidity,HourlyPrecipIn,Conditions,Clouds,dailyrainin,SolarRadiationWatts/m^2,SoftwareType,DateUTC
2013-02-17 00:02:00,36.0,32.0,-100.00,North,350,9.0,21.0,85,0.00,,,0.03,0.000000,,2013-02-17 05:02:00,
2013-02-17 00:42:00,35.0,30.0,-100.00,North,354,10.0,22.0,83,0.00,,,0.03,0.000000,,2013-02-17 05:42:00,
2013-02-17 00:52:00,35.0,30.0,-100.00,North,354,10.0,22.0,83,0.00,,,0.03,0.000000,,2013-02-17 05:52:00,
2013-02-17 01:02:00,35.0,30.0,-100.00,North,354,10.0,22.0,83,0.00,,,0.03,0.000000,,2013-02-17 06:02:00,
2013-02-17 01:11:00,35.0,30.0,-100.00,North,354,10.0,22.0,83,0.00,,,0.03,0.000000,,2013-02-17 06:11:00,
2013-02-17 01:32:00,35.0,30.0,-100.00,North,357,12.0,20.0,82,0.00,,,0.03,0.000000,,2013-02-17 06:32:00,
2013-02-17 01:42:00,35.0,30.0,-100.00,North,357,12.0,20.0,82,0.00,,,0.03,0.000000,,2013-02-17 06:42:00,
2013-02-17 01:52:00,35.0,30.0,-100.00,North,357,12.0,20.0,82,0.00,,,0.03,0.000000,,2013-02-17 06:52:00,
2013-02-17 02:01:00,35.0,30.0,-100.00,North,357,12.0,20.0,82,0.00,,,0.03,0.000000,,2013-02-17 07:01:00,
2013-02-17 02:11:00,35.0,30.0,-100.00,North,357,12.0,20.0,82,0.00,,,0.03,0.000000,,2013-02-17 07:11:00,
2013-02-17 02:42:00,33.0,30.0,-100.00,North,350,11.0,24.0,89,0.00,,,0.03,0.000000,,2013-02-17 07:42:00,
2013-02-17 02:52:00,33.0,30.0,-100.00,North,350,11.0,24.0,89,0.00,,,0.03,0.000000,,2013-02-17 07:52:00,
2013-02-17 03:01:00,33.0,30.0,-100.00,North,350,11.0,24.0,89,0.00,,,0.03,0.000000,,2013-02-17 08:01:00,
2013-02-17 03:11:00,33.0,30.0,-100.00,North,350,11.0,24.0,89,0.00,,,0.03,0.000000,,2013-02-17 08:11:00,
2013-02-17 03:42:00,33.0,29.0,-100.00,North,353,12.0,26.0,85,0.00,,,0.03,0.000000,,2013-02-17 08:42:00,
2013-02-17 03:52:00,33.0,29.0,-100.00,North,353,12.0,26.0,85,0.00,,,0.03,0.000000,,2013-02-17 08:52:00,
2013-02-17 04:02:00,33.0,29.0,-100.00,North,353,12.0,26.0,85,0.00,,,0.03,0.000000,,2013-02-17 09:02:00,
2013-02-17 04:11:00,33.0,29.0,-100.00,North,353,12.0,26.0,85,0.00,,,0.03,0.000000,,2013-02-17 09:11:00,
2013-02-17 04:42:00,31.0,27.0,-100.00,NNW,348,13.0,24.0,86,0.00,,,0.03,0.000000,,2013-02-17 09:42:00,
2013-02-17 04:52:00,31.0,27.0,-100.00,NNW,348,13.0,24.0,86,0.00,,,0.03,0.000000,,2013-02-17 09:52:00,
2013-02-17 05:01:00,31.0,27.0,-100.00,NNW,348,13.0,24.0,86,0.00,,,0.03,0.000000,,2013-02-17 10:01:00,
2013-02-17 05:11:00,31.0,27.0,-100.00,NNW,348,13.0,24.0,86,0.00,,,0.03,0.000000,,2013-02-17 10:11:00,
2013-02-17 05:42:00,29.0,28.0,-100.00,NNW,345,14.0,26.0,96,0.00,,,0.03,0.000000,,2013-02-17 10:42:00,
2013-02-17 05:52:00,29.0,28.0,-100.00,NNW,345,14.0,26.0,96,0.00,,,0.03,0.000000,,2013-02-17 10:52:00,
2013-02-17 06:01:00,29.0,28.0,-100.00,NNW,345,14.0,26.0,96,0.00,,,0.03,0.000000,,2013-02-17 11:01:00,
2013-02-17 06:11:00,29.0,28.0,-100.00,NNW,345,14.0,26.0,96,0.00,,,0.03,0.000000,,2013-02-17 11:11:00,
2013-02-17 06:42:00,28.0,27.0,-100.00,NNW,338,13.0,27.0,95,0.00,,,0.03,0.000000,,2013-02-17 11:42:00,
2013-02-17 06:53:00,28.0,27.0,-100.00,NNW,338,13.0,27.0,95,0.00,,,0.03,0.000000,,2013-02-17 11:53:00,
2013-02-17 07:03:00,28.0,27.0,-100.00,NNW,338,13.0,27.0,95,0.00,,,0.03,0.000000,,2013-02-17 12:03:00,
2013-02-17 07:11:00,28.0,27.0,-100.00,NNW,338,13.0,27.0,95,0.00,,,0.03,0.000000,,2013-02-17 12:11:00,
2013-02-17 07:12:00,26.0,25.0,-100.00,NNW,334,12.0,28.0,95,0.00,,,0.03,3.000000,,2013-02-17 12:12:00,
2013-02-17 07:32:00,26.0,25.0,-100.00,NNW,334,12.0,28.0,95,0.00,,,0.03,3.000000,,2013-02-17 12:32:00,
2013-02-17 07:42:00,26.0,25.0,-100.00,NNW,334,12.0,28.0,95,0.00,,,0.03,3.000000,,2013-02-17 12:42:00,
2013-02-17 07:52:00,26.0,25.0,-100.00,NNW,334,12.0,28.0,95,0.00,,,0.03,3.000000,,2013-02-17 12:52:00,
2013-02-17 08:02:00,26.0,25.0,-100.00,NNW,334,12.0,28.0,95,0.00,,,0.03,3.000000,,2013-02-17 13:02:00,
2013-02-17 09:42:00,26.0,24.0,-100.00,NW,325,10.0,23.0,92,-99.99,,,0.03,44.000000,,2013-02-17 14:42:00,
2013-02-17 09:53:00,26.0,24.0,-100.00,NW,325,10.0,23.0,92,-99.99,,,0.03,44.000000,,2013-02-17 14:53:00,
2013-02-17 10:02:00,26.0,24.0,-100.00,NW,325,10.0,23.0,92,-99.99,,,0.03,44.000000,,2013-02-17 15:02:00,
2013-02-17 10:11:00,26.0,24.0,-100.00,NW,325,10.0,23.0,92,-99.99,,,0.03,44.000000,,2013-02-17 15:11:00,
2013-02-17 10:12:00,25.0,23.0,-100.00,NW,320,10.0,21.0,93,0.00,,,0.03,62.000000,,2013-02-17 15:12:00,
2013-02-17 10:42:00,25.0,23.0,-100.00,NW,320,10.0,21.0,93,0.00,,,0.03,62.000000,,2013-02-17 15:42:00,
2013-02-17 10:52:00,25.0,23.0,-100.00,NW,320,10.0,21.0,93,0.00,,,0.03,62.000000,,2013-02-17 15:52:00,
2013-02-17 11:01:00,25.0,23.0,-100.00,NW,320,10.0,21.0,93,0.00,,,0.03,62.000000,,2013-02-17 16:01:00,
2013-02-17 11:32:00,25.0,23.0,-100.00,NW,307,9.0,17.0,93,0.00,,,0.03,82.000000,,2013-02-17 16:32:00,
2013-02-17 11:42:00,25.0,23.0,-100.00,NW,307,9.0,17.0,93,0.00,,,0.03,82.000000,,2013-02-17 16:42:00,
2013-02-17 11:52:00,25.0,23.0,-100.00,NW,307,9.0,17.0,93,0.00,,,0.03,82.000000,,2013-02-17 16:52:00,
2013-02-17 12:02:00,25.0,23.0,-100.00,NW,307,9.0,17.0,93,0.00,,,0.03,82.000000,,2013-02-17 17:02:00,
2013-02-17 12:11:00,25.0,23.0,-100.00,NW,307,9.0,17.0,93,0.00,,,0.03,82.000000,,2013-02-17 17:11:00,
2013-02-17 12:32:00,24.0,22.0,-100.00,WNW,293,7.0,20.0,93,0.00,,,0.03,81.000000,,2013-02-17 17:32:00,
2013-02-17 12:42:00,24.0,22.0,-100.00,WNW,293,7.0,20.0,93,0.00,,,0.03,81.000000,,2013-02-17 17:42:00,
2013-02-17 12:52:00,24.0,22.0,-100.00,WNW,293,7.0,20.0,93,0.00,,,0.03,81.000000,,2013-02-17 17:52:00,
2013-02-17 13:02:00,24.0,22.0,-100.00,WNW,293,7.0,20.0,93,0.00,,,0.03,81.000000,,2013-02-17 18:02:00,
2013-02-17 13:11:00,24.0,22.0,-100.00,WNW,293,7.0,20.0,93,0.00,,,0.03,81.000000,,2013-02-17 18:11:00,
2013-02-17 13:42:00,24.0,22.0,-100.00,WNW,285,8.0,16.0,91,0.00,,,0.02,143.000000,,2013-02-17 18:42:00,
2013-02-17 13:52:00,24.0,22.0,-100.00,WNW,285,8.0,16.0,91,0.00,,,0.02,143.000000,,2013-02-17 18:52:00,
2013-02-17 14:02:00,24.0,22.0,-100.00,WNW,285,8.0,16.0,91,0.00,,,0.02,143.000000,,2013-02-17 19:02:00,
2013-02-17 14:11:00,24.0,22.0,-100.00,WNW,285,8.0,16.0,91,0.00,,,0.02,143.000000,,2013-02-17 19:11:00,
2013-02-17 14:42:00,23.0,21.0,-100.00,WNW,282,8.0,20.0,91,0.00,,,0.01,166.000000,,2013-02-17 19:42:00,
2013-02-17 14:52:00,23.0,21.0,-100.00,WNW,282,8.0,20.0,91,0.00,,,0.01,166.000000,,2013-02-17 19:52:00,
2013-02-17 15:02:00,23.0,21.0,-100.00,WNW,282,8.0,20.0,91,0.00,,,0.01,166.000000,,2013-02-17 20:02:00,
2013-02-17 15:11:00,23.0,21.0,-100.00,WNW,282,8.0,20.0,91,0.00,,,0.01,166.000000,,2013-02-17 20:11:00,
2013-02-17 15:43:00,22.0,20.0,-100.00,WNW,283,9.0,22.0,91,0.00,,,0.01,121.000000,,2013-02-17 20:43:00,
2013-02-17 15:52:00,22.0,20.0,-100.00,WNW,283,9.0,22.0,91,0.00,,,0.01,121.000000,,2013-02-17 20:52:00,
2013-02-17 16:02:00,22.0,20.0,-100.00,WNW,283,9.0,22.0,91,0.00,,,0.01,121.000000,,2013-02-17 21:02:00,
2013-02-17 16:11:00,22.0,20.0,-100.00,WNW,283,9.0,22.0,91,0.00,,,0.01,121.000000,,2013-02-17 21:11:00,
2013-02-17 16:12:00,22.0,19.0,-100.00,WNW,283,9.0,19.0,87,0.00,,,0.01,64.000000,,2013-02-17 21:12:00,
2013-02-17 16:42:00,22.0,19.0,-100.00,WNW,283,9.0,19.0,87,0.00,,,0.01,64.000000,,2013-02-17 21:42:00,
2013-02-17 16:53:00,22.0,19.0,-100.00,WNW,283,9.0,19.0,87,0.00,,,0.01,64.000000,,2013-02-17 21:53:00,
2013-02-17 17:01:00,22.0,19.0,-100.00,WNW,283,9.0,19.0,87,0.00,,,0.01,64.000000,,2013-02-17 22:01:00,
2013-02-17 17:32:00,20.0,17.0,-100.00,West,275,9.0,20.0,88,0.00,,,0.00,18.000000,,2013-02-17 22:32:00,
2013-02-17 17:42:00,20.0,17.0,-100.00,West,275,9.0,20.0,88,0.00,,,0.00,18.000000,,2013-02-17 22:42:00,
2013-02-17 17:52:00,20.0,17.0,-100.00,West,275,9.0,20.0,88,0.00,,,0.00,18.000000,,2013-02-17 22:52:00,
2013-02-17 18:02:00,20.0,17.0,-100.00,West,275,9.0,20.0,88,0.00,,,0.00,18.000000,,2013-02-17 23:02:00,
2013-02-17 18:11:00,20.0,17.0,-100.00,West,275,9.0,20.0,88,0.00,,,0.00,18.000000,,2013-02-17 23:11:00,
2013-02-17 18:12:00,20.0,16.0,-100.00,WNW,287,9.0,19.0,86,0.00,,,0.00,0.000000,,2013-02-17 23:12:00,
2013-02-17 18:42:00,20.0,16.0,-100.00,WNW,287,9.0,19.0,86,0.00,,,0.00,0.000000,,2013-02-17 23:42:00,
2013-02-17 18:52:00,20.0,16.0,-100.00,WNW,287,9.0,19.0,86,0.00,,,0.00,0.000000,,2013-02-17 23:52:00,
2013-02-17 19:02:00,20.0,16.0,-100.00,WNW,287,9.0,19.0,86,0.00,,,0.00,0.000000,,2013-02-18 00:02:00,
2013-02-17 19:12:00,21.0,16.0,-100.00,West,278,9.0,21.0,82,0.00,,,0.00,0.000000,,2013-02-18 00:12:00,
2013-02-17 19:42:00,21.0,16.0,-100.00,West,278,9.0,21.0,82,0.00,,,0.00,0.000000,,2013-02-18 00:42:00,
2013-02-17 19:52:00,21.0,16.0,-100.00,West,278,9.0,21.0,82,0.00,,,0.00,0.000000,,2013-02-18 00:52:00,
2013-02-17 20:01:00,21.0,16.0,-100.00,West,278,9.0,21.0,82,0.00,,,0.00,0.000000,,2013-02-18 01:01:00,
2013-02-17 21:42:00,21.0,15.0,-100.00,WNW,285,9.0,19.0,76,-99.99,,,0.00,0.000000,,2013-02-18 02:42:00,
2013-02-17 21:52:00,21.0,15.0,-100.00,WNW,285,9.0,19.0,76,-99.99,,,0.00,0.000000,,2013-02-18 02:52:00,
2013-02-17 22:02:00,21.0,15.0,-100.00,WNW,285,9.0,19.0,76,-99.99,,,0.00,0.000000,,2013-02-18 03:02:00,
2013-02-17 22:11:00,21.0,15.0,-100.00,WNW,285,9.0,19.0,76,-99.99,,,0.00,0.000000,,2013-02-18 03:11:00,
2013-02-17 22:32:00,20.0,13.0,-100.00,West,265,8.0,19.0,73,0.00,,,0.00,0.000000,,2013-02-18 03:32:00,
2013-02-17 22:42:00,20.0,13.0,-100.00,West,265,8.0,19.0,73,0.00,,,0.00,0.000000,,2013-02-18 03:42:00,
2013-02-17 22:52:00,20.0,13.0,-100.00,West,265,8.0,19.0,73,0.00,,,0.00,0.000000,,2013-02-18 03:52:00,
2013-02-17 23:01:00,20.0,13.0,-100.00,West,265,8.0,19.0,73,0.00,,,0.00,0.000000,,2013-02-18 04:01:00,
2013-02-17 23:11:00,20.0,13.0,-100.00,West,265,8.0,19.0,73,0.00,,,0.00,0.000000,,2013-02-18 04:11:00,
2013-02-17 23:42:00,20.0,12.0,-100.00,West,273,9.0,20.0,71,0.00,,,0.00,0.000000,,2013-02-18 04:42:00,
2013-02-17 23:52:00,20.0,12.0,-100.00,West,273,9.0,20.0,71,0.00,,,0.00,0.000000,,2013-02-18 04:52:00,